ORBCOMM FM15 [-] (25418 NORAD) Tracking and Keplerian Element Data

This shows tracking and keplerian element data for the satellite.

Feedback or suggestion? Click here.




ElementValue
Catalog25418
NameORBCOMM FM15 [-]
Epoch Orbit30927
Epoch Day238.69069864
Epoch Year2023
RAAN62.2638
Inclination44.9987
Eccentricity0.000327
Argument of Perigee212.0623
Mean Anonmoly148.0025
Mean Motion14.34748866
Decay Rate1.211E-05
L11 25418U 98046F 23238.69069864 .00001211 00000+0 47282-3 0 9993
L22 25418 44.9987 62.2638 0003270 212.0623 148.0025 14.34748866309270



Live tracking and technical data element details for ORBCOMM FM15 [-] (NORAD 25418). ORBCOMM FM15 [-] can be tracked NOW for your location showing map with azimuth and elevation plus other details from your city location.







IsCatalogInMostPopularTable: catalog: 25418, numindb: 328
Update: records affected: 1



GetName: 25418 ORBCOMM FM15 [-]

Hit Count: updated at: Thu, 15 May 2025 18:40:44 GMT